KAZSTSAT

Last updated on Mon Sep 21 2026 00:02:46 GMT+0000 (Coordinated Universal Time)

1 43783U 18099AB 26263.22610085 .00001287 00000+0 10772-3 0 9992 2 43783 97.4220 290.8302 0013914 90.2285 270.0534 15.00038789425552
UTC large
Height (km)
Speed (km/s)
/
Latitude / Longitude
Inclination (degrees)
Orbital Period (minutes)
Azimuth
Elevation
Range (km)
Doppler Factor

Next 0 passes for location: London (51.5072 / 0.1276)

No passes found over London.
KAZSTSAT